カタログに戻る

STARLINK-38251

運用中通信SSO
NORAD 100229·PAYLOAD·🇺🇸 United States

打ち上げ Aug 4, 2026 から Vandenberg Space Force Base

Loading…

次のパス (今後24時間)

TLE

最新Source: Space-Track

元期: Sep 14, 2026, 15:30 UTC

1 A0229U 26177S   26257.64618750 -.00089325  00000-0 -16529-2 0  9999
2 A0229  97.2836 308.5315 0001940  60.5930 299.5515 15.49300188  7532

AllMySatでSTARLINK-38251をリアルタイム追跡

Download on the App Store